Kiana, AK

12:55 PM AKST on November 21, 2017 (GMT -0900)
Baker Memorial

Weather History for PAIK - March, 2013

Change the Weather History Date:

Tuesday, March 12, 2013

  Actual Average (PASK) Record (PASK)
Temperature  
Mean Temperature -2 °F -  
Max Temperature -5 °F 5 °F 30 °F (2005)
Min Temperature -13 °F -4 °F -29 °F (2012)
Degree Days  
Heating Degree Days 66    
Moisture  
Dew Point -11 °F    
Average Humidity 75    
Maximum Humidity 86    
Minimum Humidity 56    
Precipitation  
Precipitation 0.00 in - - ()
Sea Level Pressure  
Sea Level Pressure 30.81 in    
Wind  
Wind Speed 0 mph (West)    
Max Wind Speed 4 mph    
Max Gust Speed -    
Visibility 10 miles    
Events      
Averages and records for this station are not official NWS values.
T = Trace of Precipitation, MM = Missing Value Source: NWS Daily Summary

Daily Weather History Graph

Daily Weather History Graph

Search for Another Location

Airport or City:

Trip Planner

Search our weather history database for the weather conditions in past years. The results will help you decide how hot, cold, wet, or windy it might be!

Date:

Astronomy

Mar. 12, 2013 Rise Set
Actual Time 9:11 AM AKDT 8:32 PM AKDT
Civil Twilight 8:18 AM AKDT 9:25 PM AKDT
Nautical Twilight 7:15 AM AKDT 10:29 PM AKDT
Astronomical Twilight 6:05 AM AKDT 11:41 PM AKDT
Moon 8:42 AM AKDT (3/12) 10:59 PM AKDT (3/12)
Length of Visible Light 13h 06m
Length of Day
11h 21m
New Moon, 1% of the Moon is Illuminated
Mar 12
New Moon
Mar 19
First Quarter
Mar 27
Full
Apr 2
Last Quarter
Apr 10
New

Hourly Weather History & Observations

Time (AKDT) Temp. Windchill Dew Point Humidity Pressure Visibility Wind Dir Wind Speed Gust Speed Precip Events Conditions
12:01 AM -9.9 °F - -14.1 °F 82% 30.91 in 10.0 mi Calm Calm - N/A   Clear
1:01 AM -11.0 °F - -14.1 °F 86% 30.90 in 10.0 mi Calm Calm - N/A   Clear
2:01 AM -11.0 °F - -15.0 °F 83% 30.92 in 10.0 mi Calm Calm - N/A   Clear
3:01 AM -11.9 °F - -16.1 °F 82% 30.91 in 10.0 mi Calm Calm - N/A   Clear
4:01 AM -11.9 °F - -16.1 °F 82% 30.91 in 10.0 mi Calm Calm - N/A   Clear
5:01 AM -9.0 °F -18.2 °F -13.0 °F 83% 30.89 in 10.0 mi East 3.5 mph - N/A   Clear
6:01 AM -11.0 °F - -16.1 °F 78% 30.88 in 10.0 mi Calm Calm - N/A   Clear
7:01 AM -11.9 °F - -16.1 °F 82% 30.88 in 10.0 mi Calm Calm - N/A   Clear
8:01 AM -13.0 °F - -18.0 °F 78% 30.87 in 10.0 mi Calm Calm - N/A   Clear
9:01 AM -11.9 °F - -16.1 °F 82% 30.86 in 10.0 mi Calm Calm - N/A   Clear
10:01 AM -9.9 °F - -15.0 °F 78% 30.85 in 10.0 mi Calm Calm - N/A   Clear
11:01 AM -6.0 °F - -9.9 °F 83% 30.84 in 10.0 mi Calm Calm - N/A   Clear
12:01 PM -2.9 °F - -8.0 °F 79% 30.83 in 10.0 mi Calm Calm - N/A   Clear
1:01 PM -2.0 °F - -9.0 °F 72% 30.82 in 10.0 mi Calm Calm - N/A   Clear
2:01 PM 3.9 °F - -5.1 °F 66% 30.81 in 10.0 mi Calm Calm - N/A   Clear
3:01 PM 7.0 °F 0.1 °F -5.1 °F 58% 30.78 in 10.0 mi NNW 3.5 mph - N/A   Clear
4:01 PM 3.9 °F - -7.1 °F 60% 30.76 in 10.0 mi Calm Calm - N/A   Clear
5:01 PM 10.0 °F 3.6 °F -2.9 °F 56% 30.74 in 10.0 mi West 3.5 mph - N/A   Clear
6:01 PM 5.0 °F - -4.0 °F 66% 30.72 in 10.0 mi Calm Calm - N/A   Clear
7:01 PM 6.1 °F -0.9 °F -5.1 °F 60% 30.71 in 10.0 mi SSW 3.5 mph - N/A   Clear
8:01 PM 3.0 °F - -6.0 °F 66% 30.69 in 10.0 mi Calm Calm - N/A   Clear
9:01 PM -2.0 °F - -9.9 °F 69% 30.68 in 10.0 mi Calm Calm - N/A   Clear
10:01 PM -4.0 °F - -9.0 °F 79% 30.67 in 10.0 mi Calm Calm - N/A   Clear
11:01 PM -6.0 °F - -11.0 °F 79% 30.66 in 10.0 mi Calm Calm - N/A   Clear